Location: Rancho Del Sol Observatory
(38.7214°N, 120.6350°W)
Time: 18:11:37
(UTC-08:00)

A-11 Canister half - Pass Details

Date: 06 February 2020
Orbit: 1517 x 1683 km, 47.2° (Epoch: 19 February)

Event Time Altitude Azimuth Distance (km) Brightness Sun altitude
Rises 00:11:32 0° 290° (WNW) 4,745 - -67.0°
Reaches altitude 10° 00:14:45 10° 295° (WNW) 3,740 - -67.0°
Maximum altitude 00:23:58 55° 12° (NNE) 1,788 - -67.0°
Drops below altitude 10° 00:33:00 10° 89° (E) 3,675 - -66.7°
Sets 00:36:08 0° 94° (E) 4,657 - -66.6°
